Weather in Tallahassee

United States     30°26′33″N   84°17′13″W
temp.,
°C
wind,
m/s
gust,
m/s
humid.,
%
clouds,
%
prec.,
mm/h
press.,
hPa
HPBL,
m
26 may, thu
thu2623:00+22sw1283100 0.0 101873
02:00+22e278868 0.1 1017217
05:00+22se2879100 0.0 1017323
08:00+22se3109699 4.5 1018357
11:00+26s4879100 2.4 10181040
14:00+29s61059100 3.4 10171581
17:00+28s6964100 0.4 10151247
20:00+25s41083100 0.5 1015870
27 may, fri
fri2723:00+23ssw3119379 1.2 1015441
02:00+22ssw299698 1.5 1014341
05:00+22ssw279577 0.4 1013304
08:00+22sw2793100 2.8 1014259
11:00+29w34490 0.4 10141258
14:00+33w36260 0.4 10132782
17:00+33w452729 0.0 10112994
20:00+27wsw410430 0.0 1012371
28 may, sat
sat2823:00+22wsw22630 0.0 101324
02:00+20w12760 0.0 101321
05:00+19wnw11810 0.0 101211
08:00+21n12680 0.0 101497
11:00+29nnw11400 0.0 10141049
14:00+32wnw23336 0.0 10132349
17:00+31ssw33369 0.0 10112299
20:00+26w125597 0.0 101253
29 may, sun
sun2923:00+24ssw23644 0.0 101352
02:00+21sw00720 0.0 101312
05:00+20ne01740 0.0 101311
08:00+22ese12700 0.0 1015109
11:00+30se23420 0.0 10151389
14:00+34ssw34260 0.0 10152662
17:00+33s43210 0.0 10132178
20:00+26ssw22430 0.0 101437
30 may, mon
mon3023:00+22wnw115232 0.0 101614
02:00+21ene00550 0.0 101711
05:00+20se11610 0.0 101813
08:00+23e23710 0.0 1019128
11:00+31ese23470 0.0 10191194
14:00+36ese233172 0.0 10183093
17:00+30w3347100 0.1 101698
20:00+26wnw1166100 0.8 101726